Home   Weather   Kawartha Lakes   Past weeks

Flag for Canada Past Weather in Kawartha Lakes, Ontario, Canada — Yesterday and Last 2 Weeks

Now
40 °F

Chilly.


Feels Like: 34 °F
Forecast: 34 / 57 °F
Wind: 9 mph from Northeast

Location: Lagoon City

Current Time: Apr 24, 2017 at 5:51:20 am

Latest Report: Apr 24, 2017 at 5:00 am


Visibility: N/A

Pressure: 30.14 "Hg

Humidity: 73%

Dew Point: 32 °F

Location of Kawartha LakesLocation

Past Weather in Kawartha Lakes — Graph

°F

Kawartha Lakes Temperature Yesterday

Maximum temperature yesterday: 60 °F (at 4:00 pm)
Minimum temperature yesterday: 38 °F (at 5:00 am)
Average temperature yesterday: 47 °F

High & Low Weather Summary for the Past Weeks

 TemperatureHumidityPressure
High60 °F (Apr 11, 5:00 pm)100% (Apr 11, 5:00 am)30.51 "Hg (Apr 11, 5:00 am)
Low30 °F (Apr 18, 6:00 am)23% (Apr 14, 4:00 pm)29.65 "Hg (Apr 16, 1:00 pm)
Average45 °F74%30.07 "Hg
* Reported Apr 9 4:00 am — Apr 24 4:00 am, Kawartha Lakes, Weather by CustomWeather, © 2017

Note: Actual official high and low records may vary slightly from our data, if they occured in-between our weather recording intervals... More about our weather records

Advertising

Kawartha Lakes Weather History for the Previous 24 Hours

Scroll right to see more
 ConditionsComfort  
Time TempWeatherWind HumidityBarometerVisibility
4:00 am
Mon, Apr 24
41 °FQuite cool.9 mph78%30.13 "HgN/A
3:00 am43 °FQuite cool.9 mph75%30.11 "HgN/A
2:00 am44 °FQuite cool.5 mph76%30.10 "HgN/A
1:00 am46 °FCool.6 mph72%30.09 "HgN/A
12:00 am46 °FCool.2 mph70%30.09 "HgN/A
11:00 pm
Sun, Apr 23
48 °FCool.3 mph66%30.09 "HgN/A
10:00 pm49 °FCool.5 mph60%30.10 "HgN/A
9:00 pm49 °FCool.8 mph58%30.08 "HgN/A
8:00 pm51 °FCool.13 mph54%30.06 "HgN/A
7:00 pm53 °FCool.18 mph55%30.04 "HgN/A
6:00 pm55 °FRefreshingly cool.17 mph51%30.02 "HgN/A
5:00 pm57 °FRefreshingly cool.16 mph45%30.00 "HgN/A
4:00 pm60 °FRefreshingly cool.18 mph37%29.99 "HgN/A
3:00 pm53 °FCool.10 mph55%30.00 "HgN/A
2:00 pm52 °FCool.14 mph60%30.01 "HgN/A
1:00 pm50 °FCool.8 mph60%30.04 "HgN/A
12:00 pm48 °FCool.8 mph64%30.07 "HgN/A
11:00 am45 °FCool.5 mph76%30.07 "HgN/A
10:00 am44 °FQuite cool.6 mph75%30.08 "HgN/A
9:00 am42 °FQuite cool.6 mph73%30.09 "HgN/A
8:00 am40 °FQuite cool.6 mph84%30.09 "HgN/A
7:00 am41 °FQuite cool.8 mph77%30.08 "HgN/A
6:00 am40 °FQuite cool.3 mph76%30.07 "HgN/A
5:00 am38 °FChilly.1 mph92%30.06 "HgN/A
Weather by CustomWeather, © 2017

See weather overviewHow to use our weather pages